Date String (YYYY-MM-DD hh:mm:ss) UTC,Instrument flags,Ambient pressure (hPa),Sample flow (lpm),Bypass flow (lpm),Sample temperature (°C),Ambient temperature (°C),ASC tube jacket temperature (°C),LED temperature (°C),Box temperature (°C),Sample RH (%),Span deviation,Mass concentration (μg/m³),Mass concentration (μg/m³),Mass concentration (μg/m³)
DateTimeUTC,F1_M11,P_M11,Q1_M11,Q2_M11,T1_M11,T2_M11,T3_M11,T4_M11,T5_M11,U1_M11,ZSPAN_M11,X0_M11,X2_M11,X1_M11
2022-07-01 18:00:00,,0830.8,4.99,0.00,29.5,27.4,00.0,38.1,31.3,30.4,0000.0,0010.58,0004.84,0003.95
2022-07-01 18:01:00,,0830.8,5.00,0.00,29.4,27.0,00.0,38.1,31.2,30.0,0000.0,0010.48,0004.81,0003.93
2022-07-01 18:02:00,,0830.8,5.00,0.00,29.3,27.0,00.0,38.1,31.1,30.0,0000.0,0010.22,0004.76,0003.92
2022-07-01 18:03:00,,0830.7,5.00,0.00,29.3,27.1,00.0,38.1,31.1,30.3,0000.0,0010.37,0004.73,0003.93
2022-07-01 18:04:00,,0830.7,5.00,0.00,29.3,27.3,00.0,38.1,31.1,30.5,0000.0,0010.98,0004.73,0003.92
2022-07-01 18:05:00,,0830.8,5.01,0.00,29.3,27.5,00.0,38.1,31.2,30.5,0000.0,0011.53,0004.73,0003.93
2022-07-01 18:06:00,,0830.8,5.01,0.00,29.3,27.7,00.0,38.1,31.2,30.4,0000.0,0011.29,0004.69,0003.93
2022-07-01 18:07:00,,0830.7,5.00,0.00,29.3,27.8,00.0,38.1,31.2,30.8,0000.0,0011.21,0004.71,0003.91
2022-07-01 18:08:00,,0830.7,5.00,0.00,29.3,28.0,00.0,38.1,31.3,30.5,0000.0,0011.41,0004.65,0003.91
2022-07-01 18:09:00,,0830.8,4.99,0.00,29.3,28.1,00.0,38.1,31.3,30.2,0000.0,0012.02,0004.68,0003.92
2022-07-01 18:10:00,,0830.7,4.99,0.00,29.4,28.2,00.0,38.1,31.4,29.9,0000.0,0012.30,0004.73,0003.93
2022-07-01 18:11:00,,0830.7,5.00,0.00,29.4,28.4,00.0,38.1,31.4,29.9,0000.0,0012.62,0004.70,0003.91
2022-07-01 18:12:00,,0830.7,5.00,0.00,29.4,28.5,00.0,38.1,31.4,29.7,0000.0,0012.69,0004.67,0003.91
2022-07-01 18:13:00,,0830.6,4.99,0.00,29.5,28.5,00.0,38.1,31.5,29.2,0000.0,0012.55,0004.71,0003.91
2022-07-01 18:14:00,,0830.6,4.99,0.00,29.5,28.0,00.0,38.1,31.4,29.4,0000.0,0013.61,0004.73,0003.91
2022-07-01 18:15:00,,0830.6,5.01,0.00,29.4,27.3,00.0,38.1,31.3,29.9,0000.0,0013.46,0004.74,0003.91
2022-07-01 18:16:00,,0830.6,5.01,0.00,29.4,27.0,00.0,38.1,31.2,30.2,0000.0,0012.81,0004.72,0003.88
2022-07-01 18:17:00,,0830.6,5.00,0.00,29.3,27.1,00.0,38.1,31.1,30.3,0000.0,0013.63,0004.73,0003.85
2022-07-01 18:18:00,,0830.6,5.00,0.00,29.3,27.2,00.0,38.0,31.1,30.2,0000.0,0013.53,0004.73,0003.85
2022-07-01 18:19:00,,0830.6,4.99,0.00,29.2,27.3,00.0,38.0,31.1,30.7,0000.0,0012.74,0004.77,0003.84
2022-07-01 18:20:00,,0830.5,5.00,0.00,29.2,27.5,00.0,38.0,31.1,30.7,0000.0,0012.15,0004.77,0003.82
2022-07-01 18:21:00,,0830.5,5.00,0.00,29.3,27.7,00.0,38.0,31.2,30.1,0000.0,0012.00,0004.78,0003.81
2022-07-01 18:22:00,,0830.6,5.00,0.00,29.3,27.9,00.0,38.0,31.2,30.1,0000.0,0011.81,0004.82,0003.81
2022-07-01 18:23:00,,0830.5,5.00,0.00,29.3,28.0,00.0,38.0,31.3,29.9,0000.0,0011.64,0004.86,0003.81
2022-07-01 18:24:00,,0830.5,5.00,0.00,29.3,28.1,00.0,38.1,31.3,29.8,0000.0,0011.53,0004.81,0003.80
2022-07-01 18:25:00,,0830.5,4.99,0.00,29.3,28.3,00.0,38.1,31.4,29.8,0000.0,0010.52,0004.76,0003.79
2022-07-01 18:26:00,,0830.5,5.01,0.00,29.4,28.4,00.0,38.1,31.4,29.5,0000.0,0010.59,0004.75,0003.78
2022-07-01 18:27:00,,0830.5,5.01,0.00,29.4,28.5,00.0,38.1,31.4,30.2,0000.0,0010.64,0004.73,0003.79
2022-07-01 18:28:00,,0830.5,5.00,0.00,29.5,28.5,00.0,38.1,31.5,30.2,0000.0,0009.87,0004.67,0003.78
2022-07-01 18:29:00,,0830.4,4.99,0.00,29.5,27.9,00.0,38.1,31.4,29.8,0000.0,0009.93,0004.62,0003.76
2022-07-01 18:30:00,,0830.4,5.00,0.00,29.4,27.3,00.0,38.0,31.3,29.6,0000.0,0009.93,0004.58,0003.75
2022-07-01 18:31:00,,0830.4,5.00,0.00,29.4,27.0,00.0,38.0,31.2,30.0,0000.0,0009.97,0004.57,0003.75
2022-07-01 18:32:00,,0830.4,5.00,0.00,29.3,27.1,00.0,38.0,31.1,30.2,0000.0,0010.29,0004.51,0003.75
2022-07-01 18:33:00,,0830.4,5.00,0.00,29.3,27.2,00.0,38.0,31.1,30.1,0000.0,0010.84,0004.48,0003.75
2022-07-01 18:34:00,,0830.4,4.99,0.00,29.2,27.4,00.0,38.0,31.1,30.5,0000.0,0010.86,0004.48,0003.75
2022-07-01 18:35:00,,0830.3,5.00,0.00,29.2,27.5,00.0,38.0,31.1,30.0,0000.0,0011.00,0004.55,0003.76
2022-07-01 18:36:00,,0830.3,5.01,0.00,29.3,27.7,00.0,38.0,31.2,30.0,0000.0,0010.95,0004.56,0003.77
2022-07-01 18:37:00,,0830.2,5.01,0.00,29.3,27.9,00.0,38.0,31.2,30.0,0000.0,0010.69,0004.55,0003.77
2022-07-01 18:38:00,,0830.2,5.00,0.00,29.3,28.0,00.0,38.0,31.3,30.0,0000.0,0010.63,0004.56,0003.76
2022-07-01 18:39:00,,0830.2,5.00,0.00,29.3,28.2,00.0,38.1,31.3,30.2,0000.0,0010.60,0004.63,0003.78
2022-07-01 18:40:00,,0830.2,4.99,0.00,29.4,28.3,00.0,38.1,31.4,30.0,0000.0,0010.29,0004.65,0003.80
2022-07-01 18:41:00,,0830.1,5.01,0.00,29.4,28.4,00.0,38.1,31.4,30.1,0000.0,0010.21,0004.66,0003.82
2022-07-01 18:42:00,,0830.1,5.00,0.00,29.4,28.4,00.0,38.1,31.4,30.0,0000.0,0009.95,0004.61,0003.83
2022-07-01 18:43:00,,0830.2,5.00,0.00,29.4,27.8,00.0,38.1,31.3,30.3,0000.0,0009.92,0004.61,0003.83
2022-07-01 18:44:00,,0830.1,5.00,0.00,29.4,27.2,00.0,38.0,31.2,29.9,0000.0,0009.64,0004.64,0003.83
2022-07-01 18:45:00,,0830.1,4.98,0.00,29.3,27.1,00.0,38.0,31.1,30.2,0000.0,0009.65,0004.65,0003.82
2022-07-01 18:46:00,,0830.1,5.00,0.00,29.3,27.1,00.0,38.0,31.0,29.8,0000.0,0009.48,0004.57,0003.81
2022-07-01 18:47:00,,0830.1,5.01,0.00,29.2,27.2,00.0,38.0,31.0,29.3,0000.0,0009.43,0004.53,0003.79
2022-07-01 18:48:00,,0830.1,5.00,0.00,29.2,27.4,00.0,38.0,31.1,29.2,0000.0,0008.97,0004.50,0003.78
2022-07-01 18:49:00,,0830.1,4.99,0.00,29.2,27.6,00.0,38.0,31.1,29.1,0000.0,0008.91,0004.50,0003.78
2022-07-01 18:50:00,,0830.1,5.01,0.00,29.2,27.7,00.0,38.0,31.2,29.3,0000.0,0009.18,0004.46,0003.77
2022-07-01 18:51:00,,0830.1,5.00,0.00,29.2,27.9,00.0,38.0,31.2,29.3,0000.0,0009.68,0004.45,0003.75
2022-07-01 18:52:00,,0830.2,5.01,0.00,29.3,28.0,00.0,38.0,31.3,29.5,0000.0,0009.69,0004.47,0003.75
2022-07-01 18:53:00,,0830.1,5.00,0.00,29.3,28.2,00.0,38.0,31.3,29.3,0000.0,0009.78,0004.52,0003.73
2022-07-01 18:54:00,,0830.1,5.00,0.00,29.3,28.3,00.0,38.0,31.3,29.0,0000.0,0010.11,0004.53,0003.72
2022-07-01 18:55:00,,0830.1,5.00,0.00,29.4,28.4,00.0,38.1,31.4,29.6,0000.0,0010.62,0004.51,0003.72
2022-07-01 18:56:00,,0830.1,4.99,0.00,29.4,28.3,00.0,38.1,31.4,29.7,0000.0,0010.57,0004.50,0003.72
2022-07-01 18:57:00,,0830.1,5.00,0.00,29.4,27.6,00.0,38.0,31.3,29.6,0000.0,0010.82,0004.56,0003.72
2022-07-01 18:58:00,,0830.1,5.00,0.00,29.3,27.0,00.0,38.0,31.2,30.0,0000.0,0011.23,0004.60,0003.72
2022-07-01 18:59:00,,0830.1,5.00,0.00,29.3,26.9,00.0,38.0,31.1,30.4,0000.0,0011.67,0004.62,0003.73
